Location: Czekanka
(50.4925°N, 19.2643°E)
Time: 01:51:48
(UTC+00:00)

ADEOS II - Pass Details

Date: 23 September 2024
Orbit: 795 x 798 km, 98.7° (Epoch: 09 October)

Event Time Altitude Azimuth Distance (km) Brightness Sun altitude
Rises 02:53:57 0° 6° (N) 3,312 5.6 -16.0°
Reaches altitude 10° 02:56:49 10° 350° (N) 2,377 4.7 -15.6°
Maximum altitude 03:00:33 20° 304° (NW) 1,766 3.5 -15.0°
Enters shadow 03:02:04 18° 282° (WNW) 1,878 3.5 -14.8°
